Date String (YYYY-MM-DD hh:mm:ss) UTC,Instrument flags,Ambient pressure (hPa),Sample flow (lpm),Bypass flow (lpm),Sample temperature (°C),Ambient temperature (°C),ASC tube jacket temperature (°C),LED temperature (°C),Box temperature (°C),Sample RH (%),Span deviation,Mass concentration (μg/m³),Mass concentration (μg/m³),Mass concentration (μg/m³)
DateTimeUTC,F1_M11,P_M11,Q1_M11,Q2_M11,T1_M11,T2_M11,T3_M11,T4_M11,T5_M11,U1_M11,ZSPAN_M11,X0_M11,X2_M11,X1_M11
2021-12-18 23:00:00,,0827.0,4.99,0.00,25.1,24.3,00.0,34.0,26.8,07.2,0000.0,0015.58,0006.24,0005.40
2021-12-18 23:01:00,,0827.0,5.01,0.00,25.1,24.3,00.0,34.0,26.8,07.2,0000.0,0015.73,0006.20,0005.40
2021-12-18 23:02:00,,0827.0,4.99,0.00,25.1,24.3,00.0,34.0,26.8,07.1,0000.0,0016.69,0006.25,0005.42
2021-12-18 23:03:00,,0827.0,5.01,0.00,25.1,24.3,00.0,34.0,26.8,07.1,0000.0,0016.84,0006.30,0005.43
2021-12-18 23:04:00,,0827.0,4.99,0.00,25.1,24.3,00.0,34.0,26.8,07.1,0000.0,0015.52,0006.33,0005.44
2021-12-18 23:05:00,,0827.0,5.01,0.00,25.1,24.3,00.0,34.0,26.8,07.1,0000.0,0015.27,0006.35,0005.46
2021-12-18 23:06:00,,0827.0,4.99,0.00,25.1,24.3,00.0,34.0,26.8,07.1,0000.0,0014.80,0006.35,0005.50
2021-12-18 23:07:00,,0827.1,5.00,0.00,25.1,24.3,00.0,34.0,26.8,07.1,0000.0,0014.13,0006.38,0005.52
2021-12-18 23:08:00,,0826.9,5.01,0.00,25.1,24.3,00.0,34.0,26.8,07.1,0000.0,0014.60,0006.45,0005.55
2021-12-18 23:09:00,,0827.2,5.01,0.00,25.1,24.3,00.0,34.0,26.8,07.1,0000.0,0014.31,0006.43,0005.56
2021-12-18 23:10:00,,0827.0,4.99,0.00,25.1,24.3,00.0,34.0,26.8,07.1,0000.0,0013.64,0006.41,0005.58
2021-12-18 23:11:00,,0826.9,5.01,0.00,25.1,24.3,00.0,34.0,26.9,07.1,0000.0,0013.11,0006.44,0005.60
2021-12-18 23:12:00,,0826.9,4.99,0.00,25.1,24.3,00.0,34.0,26.9,07.1,0000.0,0013.38,0006.54,0005.66
2021-12-18 23:13:00,,0826.9,5.02,0.00,25.1,24.3,00.0,34.0,26.8,07.1,0000.0,0012.66,0006.58,0005.74
2021-12-18 23:14:00,,0827.0,4.98,0.00,25.1,24.3,00.0,34.0,26.8,07.1,0002.7,0012.63,0006.66,0005.83
2021-12-18 23:15:00,,0826.9,4.99,0.00,25.1,24.3,00.0,34.0,26.8,07.1,0004.6,0013.43,0006.70,0005.89
2021-12-18 23:16:00,,0827.0,5.01,0.00,25.1,24.3,00.0,34.0,26.8,07.1,0003.4,0013.85,0006.73,0005.92
2021-12-18 23:17:00,,0826.9,4.99,0.00,25.1,24.2,00.0,34.0,26.8,07.1,0003.0,0014.95,0006.77,0005.93
2021-12-18 23:18:00,,0827.2,5.00,0.00,25.1,24.2,00.0,34.0,26.8,07.1,0003.2,0015.41,0006.82,0005.94
2021-12-18 23:19:00,,0826.9,5.00,0.00,25.0,24.2,00.0,34.0,26.8,07.1,0003.2,0015.02,0006.86,0005.95
2021-12-18 23:20:00,,0826.9,5.00,0.00,25.1,24.2,00.0,34.0,26.8,07.1,0002.8,0014.58,0006.93,0005.98
2021-12-18 23:21:00,,0826.8,5.00,0.00,25.0,24.2,00.0,34.0,26.8,07.1,0002.3,0015.04,0006.98,0006.03
2021-12-18 23:22:00,,0826.9,4.98,0.00,25.0,24.2,00.0,34.0,26.8,07.1,0002.6,0015.23,0007.01,0006.05
2021-12-18 23:23:00,,0827.1,5.01,0.00,25.0,24.2,00.0,34.0,26.8,07.1,0002.8,0015.09,0007.01,0006.06
2021-12-18 23:24:00,,0827.0,5.00,0.00,25.0,24.2,00.0,34.0,26.8,07.0,0002.3,0015.21,0007.02,0006.03
2021-12-18 23:25:00,,0827.1,5.01,0.00,25.0,24.2,00.0,34.0,26.8,07.1,0001.3,0016.03,0006.98,0005.99
2021-12-18 23:26:00,,0827.0,5.00,0.00,25.0,24.2,00.0,34.0,26.8,07.1,0000.6,0016.35,0006.97,0005.98
2021-12-18 23:27:00,,0827.0,4.99,0.00,25.0,24.2,00.0,34.0,26.8,07.0,0000.0,0017.73,0006.98,0005.99
2021-12-18 23:28:00,,0827.1,5.01,0.00,25.0,24.2,00.0,34.0,26.8,07.0,0002.1,0018.28,0007.00,0006.01
2021-12-18 23:29:00,,0827.1,4.98,0.00,25.0,24.2,00.0,34.0,26.7,07.0,0002.9,0017.72,0007.01,0006.03
2021-12-18 23:30:00,,0827.4,5.01,0.00,25.0,24.1,00.0,34.0,26.7,07.0,0003.0,0017.67,0007.02,0006.08
2021-12-18 23:31:00,,0827.1,4.99,0.00,25.0,24.1,00.0,34.0,26.8,07.0,0003.8,0017.61,0007.03,0006.11
2021-12-18 23:32:00,,0827.3,5.01,0.00,25.0,24.1,00.0,34.0,26.8,07.0,0002.7,0017.32,0007.04,0006.12
2021-12-18 23:33:00,,0827.3,4.98,0.00,25.0,24.1,00.0,33.9,26.7,07.0,0002.3,0017.71,0007.06,0006.14
2021-12-18 23:34:00,,0827.2,5.01,0.00,25.0,24.1,00.0,33.9,26.8,07.0,0000.0,0018.78,0007.06,0006.15
2021-12-18 23:35:00,,0827.2,4.99,0.00,25.0,24.1,00.0,33.9,26.8,07.0,0000.0,0018.66,0007.03,0006.15
2021-12-18 23:36:00,,0827.5,5.01,0.00,25.0,24.1,00.0,33.9,26.8,07.0,0000.0,0017.90,0007.06,0006.17
2021-12-18 23:37:00,,0827.4,5.00,0.00,25.0,24.1,00.0,33.9,26.8,07.0,0000.0,0017.17,0007.12,0006.17
2021-12-18 23:38:00,,0827.2,4.99,0.00,25.0,24.2,00.0,33.9,26.8,07.0,0000.0,0016.87,0007.19,0006.20
2021-12-18 23:39:00,,0827.2,5.00,0.00,25.0,24.1,00.0,33.9,26.8,07.0,0000.0,0017.07,0007.36,0006.32
2021-12-18 23:40:00,,0827.2,4.99,0.00,25.0,24.1,00.0,33.9,26.8,07.0,0000.0,0018.10,0007.57,0006.49
2021-12-18 23:41:00,,0827.2,5.01,0.00,25.0,24.1,00.0,33.9,26.8,07.0,0000.0,0019.63,0007.77,0006.67
2021-12-18 23:42:00,,0827.1,4.99,0.00,25.0,24.1,00.0,33.9,26.8,07.0,0000.9,0020.65,0007.95,0006.82
2021-12-18 23:43:00,,0827.1,5.01,0.00,25.0,24.1,00.0,33.9,26.8,07.0,0003.1,0022.34,0008.17,0007.01
2021-12-18 23:44:00,,0827.1,5.00,0.00,25.0,24.1,00.0,33.9,26.8,07.0,0004.1,0021.95,0008.34,0007.21
2021-12-18 23:45:00,,0827.1,5.00,0.00,25.0,24.1,00.0,33.9,26.8,07.0,0004.5,0021.97,0008.54,0007.36
2021-12-18 23:46:00,,0827.1,5.00,0.00,25.0,24.1,00.0,33.9,26.8,07.0,0004.5,0022.70,0008.71,0007.54
2021-12-18 23:47:00,,0827.0,5.00,0.00,25.0,24.1,00.0,33.9,26.7,07.0,0004.3,0023.89,0008.83,0007.69
2021-12-18 23:48:00,,0827.2,5.00,0.00,25.0,24.1,00.0,33.9,26.7,07.0,0004.6,0024.36,0008.92,0007.81
2021-12-18 23:49:00,,0827.1,5.00,0.00,25.0,24.1,00.0,33.9,26.7,07.1,0004.5,0023.64,0009.02,0007.89
2021-12-18 23:50:00,,0827.4,5.01,0.00,25.0,24.0,00.0,33.9,26.8,07.1,0004.1,0023.11,0009.01,0007.90
2021-12-18 23:51:00,,0827.1,4.99,0.00,24.9,24.0,00.0,33.9,26.7,07.1,0004.2,0023.33,0008.92,0007.83
2021-12-18 23:52:00,,0827.0,5.02,0.00,24.9,24.0,00.0,33.9,26.7,07.1,0004.3,0022.68,0008.78,0007.72
2021-12-18 23:53:00,,0827.1,4.99,0.00,24.9,24.0,00.0,33.9,26.7,07.1,0003.9,0021.83,0008.68,0007.64
2021-12-18 23:54:00,,0827.3,5.03,0.00,24.9,24.0,00.0,33.9,26.7,07.0,0001.4,0019.93,0008.52,0007.52
2021-12-18 23:55:00,,0827.5,5.00,0.00,24.9,24.0,00.0,33.9,26.7,07.1,0000.0,0020.40,0008.46,0007.42
2021-12-18 23:56:00,,0827.2,4.99,0.00,24.9,24.0,00.0,33.9,26.7,07.1,0000.0,0020.12,0008.36,0007.32
2021-12-18 23:57:00,,0827.1,5.00,0.00,24.9,24.0,00.0,33.9,26.7,07.1,0000.0,0019.98,0008.30,0007.23
2021-12-18 23:58:00,,0827.1,5.00,0.00,24.9,24.0,00.0,33.9,26.7,07.1,0000.0,0019.77,0008.20,0007.15
2021-12-18 23:59:00,,0827.2,5.01,0.00,24.9,24.0,00.0,33.9,26.7,07.1,0000.0,0019.50,0008.15,0007.09
